Glenwood, MN

2:02 AM CST on February 10, 2016 (GMT -0600)
Glenwood Municipal

Weather History for KGHW - June, 2013

Change the Weather History Date:

Saturday, June 8, 2013

  Actual Average Record
Temperature  
Mean Temperature 58 °F -  
Max Temperature 68 °F 75 °F 94 °F (1976)
Min Temperature 48 °F 52 °F 40 °F (1966)
Degree Days  
Heating Degree Days 7    
Growing Degree Days 8 (Base 50)    
Moisture  
Dew Point 51 °F    
Average Humidity 77    
Maximum Humidity 100    
Minimum Humidity 56    
Precipitation  
Precipitation 0.00 in - - ()
Sea Level Pressure  
Sea Level Pressure 29.89 in    
Wind  
Wind Speed 9 mph (ESE)    
Max Wind Speed 18 mph    
Max Gust Speed 22 mph    
Visibility 10 miles    
Events Rain    
Averages and records for this station are not official NWS values.
T = Trace of Precipitation, MM = Missing Value Source: NWS Daily Summary

Daily Weather History Graph

Daily Weather History Graph

Search for Another Location

Airport or City:

Trip Planner

Search our weather history database for the weather conditions in past years. The results will help you decide how hot, cold, wet, or windy it might be!

Date:

Astronomy

Jun. 08, 2013 Rise Set
Actual Time 5:32 AM CDT 9:08 PM CDT
Civil Twilight 4:54 AM CDT 9:46 PM CDT
Nautical Twilight 4:04 AM CDT 10:36 PM CDT
Astronomical Twilight 2:57 AM CDT 11:44 PM CDT
Moon 5:43 AM CDT (6/8) 9:08 PM CDT (6/8)
Length of Visible Light 16h 51m
Length of Day
15h 36m
New Moon, 0% of the Moon is Illuminated
Jun 8
New Moon
Jun 16
First Quarter
Jun 23
Full
Jun 29
Last Quarter
Jul 8
New

Hourly Weather History & Observations

Time (CDT) Temp. Dew Point Humidity Pressure Visibility Wind Dir Wind Speed Gust Speed Precip Events Conditions
12:13 AM 53.6 °F 50.0 °F 88% 29.92 in 10.0 mi ESE 5.8 mph - N/A   Clear
12:33 AM 53.6 °F 50.0 °F 88% 29.92 in 10.0 mi ESE 4.6 mph - N/A   Clear
12:53 AM 53.6 °F 50.0 °F 88% 29.91 in 10.0 mi ESE 4.6 mph - N/A   Clear
1:14 AM 53.6 °F 50.0 °F 88% 29.91 in 10.0 mi ESE 5.8 mph - N/A   Clear
1:33 AM 53.6 °F 50.0 °F 88% 29.91 in 10.0 mi ESE 5.8 mph - N/A   Clear
1:53 AM 53.6 °F 50.0 °F 88% 29.90 in 10.0 mi ESE 5.8 mph - N/A   Clear
2:14 AM 53.6 °F 50.0 °F 88% 29.90 in 10.0 mi ESE 6.9 mph - N/A   Clear
2:33 AM 51.8 °F 50.0 °F 94% 29.90 in 10.0 mi ESE 6.9 mph - N/A   Clear
2:53 AM 51.8 °F 48.2 °F 88% 29.90 in 10.0 mi ESE 4.6 mph - N/A   Clear
3:14 AM 51.8 °F 48.2 °F 88% 29.90 in 10.0 mi SE 6.9 mph - N/A   Clear
3:33 AM 50.0 °F 48.2 °F 94% 29.90 in 10.0 mi East 5.8 mph - N/A   Clear
3:53 AM 48.2 °F 48.2 °F 100% 29.90 in 7.0 mi East 6.9 mph - N/A   Clear
4:14 AM 50.0 °F 48.2 °F 94% 29.89 in 7.0 mi ESE 6.9 mph - N/A   Clear
4:33 AM 48.2 °F 48.2 °F 100% 29.90 in 7.0 mi East 5.8 mph - N/A   Clear
4:53 AM 48.2 °F 46.4 °F 93% 29.90 in 7.0 mi East 6.9 mph - N/A   Clear
5:13 AM 48.2 °F 48.2 °F 100% 29.90 in 7.0 mi East 8.1 mph - N/A   Clear
5:33 AM 50.0 °F 48.2 °F 94% 29.89 in 7.0 mi ESE 8.1 mph - N/A   Clear
5:54 AM 50.0 °F 48.2 °F 94% 29.89 in 5.0 mi ESE 8.1 mph - N/A   Clear
6:13 AM 50.0 °F 48.2 °F 94% 29.89 in 7.0 mi ESE 8.1 mph - N/A   Clear
6:33 AM 51.8 °F 48.2 °F 88% 29.89 in 7.0 mi East 6.9 mph - N/A   Clear
6:53 AM 51.8 °F 50.0 °F 94% 29.89 in 7.0 mi ESE 9.2 mph - N/A   Clear
7:13 AM 53.6 °F 51.8 °F 94% 29.89 in 7.0 mi ESE 10.4 mph - N/A   Clear
7:34 AM 55.4 °F 51.8 °F 88% 29.89 in 7.0 mi ESE 9.2 mph - N/A   Clear
7:53 AM 57.2 °F 51.8 °F 82% 29.89 in 10.0 mi ESE 8.1 mph - N/A   Clear
8:13 AM 57.2 °F 51.8 °F 82% 29.89 in 10.0 mi ESE 9.2 mph - N/A   Clear
8:34 AM 60.8 °F 53.6 °F 77% 29.89 in 10.0 mi ESE 10.4 mph - N/A   Clear
8:53 AM 60.8 °F 53.6 °F 77% 29.89 in 10.0 mi ESE 10.4 mph - N/A   Clear
9:13 AM 60.8 °F 53.6 °F 77% 29.89 in 10.0 mi ESE 11.5 mph - N/A   Clear
9:34 AM 62.6 °F 53.6 °F 72% 29.89 in 10.0 mi ESE 12.7 mph - N/A   Clear
9:53 AM 62.6 °F 51.8 °F 68% 29.89 in 10.0 mi ESE 11.5 mph - N/A   Clear
10:13 AM 62.6 °F 51.8 °F 68% 29.88 in 10.0 mi ESE 16.1 mph - N/A   Clear
10:34 AM 62.6 °F 51.8 °F 68% 29.89 in 10.0 mi ESE 12.7 mph - N/A   Clear
10:53 AM 62.6 °F 51.8 °F 68% 29.89 in 10.0 mi ESE 12.7 mph - N/A   Clear
11:13 AM 62.6 °F 51.8 °F 68% 29.89 in 10.0 mi ESE 12.7 mph - N/A   Clear
11:34 AM 64.4 °F 51.8 °F 64% 29.89 in 10.0 mi SE 17.3 mph - N/A   Clear
11:53 AM 64.4 °F 53.6 °F 68% 29.88 in 10.0 mi ESE 13.8 mph 17.3 mph N/A   Clear
12:13 PM 64.4 °F 51.8 °F 64% 29.88 in 10.0 mi ESE 12.7 mph 17.3 mph N/A   Clear
12:33 PM 64.4 °F 51.8 °F 64% 29.89 in 10.0 mi ESE 15.0 mph - N/A   Clear
12:53 PM 64.4 °F 51.8 °F 64% 29.88 in 10.0 mi ESE 12.7 mph - N/A   Scattered Clouds
1:13 PM 64.4 °F 51.8 °F 64% 29.88 in 10.0 mi ESE 13.8 mph 19.6 mph N/A   Scattered Clouds
1:33 PM 66.2 °F 51.8 °F 60% 29.88 in 10.0 mi SE 16.1 mph - N/A   Clear
1:53 PM 66.2 °F 51.8 °F 60% 29.88 in 10.0 mi ESE 13.8 mph - N/A   Clear
2:14 PM 68.0 °F 51.8 °F 56% 29.88 in 10.0 mi ESE 16.1 mph - N/A   Scattered Clouds
2:33 PM 64.4 °F 51.8 °F 64% 29.88 in 10.0 mi ESE 16.1 mph 21.9 mph N/A   Mostly Cloudy
2:53 PM 64.4 °F 51.8 °F 64% 29.88 in 10.0 mi ESE 12.7 mph - N/A   Overcast
3:14 PM 64.4 °F 51.8 °F 64% 29.87 in 10.0 mi ESE 13.8 mph - N/A   Mostly Cloudy
3:33 PM 64.4 °F 51.8 °F 64% 29.88 in 10.0 mi ESE 15.0 mph - N/A   Mostly Cloudy
3:53 PM 66.2 °F 53.6 °F 64% 29.87 in 10.0 mi ESE 18.4 mph 21.9 mph N/A   Mostly Cloudy
4:14 PM 66.2 °F 53.6 °F 64% 29.87 in 10.0 mi ESE 12.7 mph - N/A   Scattered Clouds
4:33 PM 66.2 °F 51.8 °F 60% 29.87 in 10.0 mi ESE 12.7 mph 18.4 mph N/A   Clear
4:53 PM 66.2 °F 51.8 °F 60% 29.88 in 10.0 mi ESE 11.5 mph 20.7 mph N/A   Mostly Cloudy
5:14 PM 64.4 °F 50.0 °F 59% 29.88 in 10.0 mi SE 13.8 mph - N/A   Mostly Cloudy
5:33 PM 64.4 °F 51.8 °F 64% 29.88 in 10.0 mi SSE 15.0 mph 18.4 mph N/A   Scattered Clouds
5:53 PM 64.4 °F 53.6 °F 68% 29.89 in 10.0 mi SSE 13.8 mph - N/A   Scattered Clouds
6:14 PM 62.6 °F 53.6 °F 72% 29.89 in 10.0 mi SE 13.8 mph - N/A   Scattered Clouds
6:33 PM 62.6 °F 53.6 °F 72% 29.89 in 10.0 mi SE 13.8 mph 19.6 mph N/A   Scattered Clouds
6:53 PM 62.6 °F 51.8 °F 68% 29.89 in 10.0 mi SSE 15.0 mph 19.6 mph N/A   Mostly Cloudy
7:14 PM 62.6 °F 53.6 °F 72% 29.88 in 10.0 mi SSE 13.8 mph 21.9 mph N/A Rain Light Rain
7:33 PM 60.8 °F 53.6 °F 77% 29.88 in 10.0 mi SE 12.7 mph - N/A   Light Drizzle
7:53 PM 60.8 °F 53.6 °F 77% 29.89 in 10.0 mi SE 10.4 mph - N/A   Scattered Clouds
8:14 PM 60.8 °F 53.6 °F 77% 29.88 in 10.0 mi SE 10.4 mph - N/A   Scattered Clouds
8:33 PM 60.8 °F 53.6 °F 77% 29.88 in 10.0 mi ESE 6.9 mph - N/A   Scattered Clouds
8:53 PM 60.8 °F 53.6 °F 77% 29.88 in 10.0 mi ESE 9.2 mph - N/A   Mostly Cloudy
9:13 PM 60.8 °F 53.6 °F 77% 29.88 in 10.0 mi ESE 8.1 mph - N/A   Overcast
9:33 PM 60.8 °F 51.8 °F 72% 29.87 in 10.0 mi East 9.2 mph - N/A   Overcast
9:53 PM 59.0 °F 51.8 °F 77% 29.87 in 10.0 mi East 9.2 mph - N/A   Light Drizzle
10:13 PM 60.8 °F 53.6 °F 77% 29.88 in 10.0 mi East 10.4 mph - N/A   Overcast
10:33 PM 60.8 °F 53.6 °F 77% 29.88 in 10.0 mi East 10.4 mph - N/A   Overcast
10:53 PM 60.8 °F 53.6 °F 77% 29.88 in 10.0 mi East 11.5 mph - N/A   Overcast
11:13 PM 60.8 °F 53.6 °F 77% 29.88 in 10.0 mi East 11.5 mph - N/A   Overcast
11:33 PM 60.8 °F 53.6 °F 77% 29.88 in 10.0 mi East 12.7 mph - N/A   Mostly Cloudy
11:54 PM 60.8 °F 53.6 °F 77% 29.88 in 10.0 mi East 11.5 mph - N/A   Scattered Clouds